EW5171 Weather Reports


Display with metric or nautical units.
time (UTC)temp
F
wind
direction
speed
MPH
gust
MPH
rain 1hr
in
rain 24hr
in
rain mn
in
humidity
%
barometer
mb
20260503024056 50 230 1.0 6.0 0.00 0.00 0.00 93 1011.1
20260503023555 50 244 0.0 4.0 0.00 0.00 0.00 93 1011.2
20260503023054 50 229 0.0 4.0 0.00 0.00 0.00 92 1011.3
20260503022553 51 211 1.0 4.0 0.00 0.00 0.00 92 1011.2
20260503022052 51 222 1.0 7.0 0.00 0.00 0.00 93 1011.2
20260503021551 51 193 2.0 7.0 0.00 0.00 0.00 93 1011.3
20260503021051 51 219 1.0 5.0 0.00 0.00 0.00 93 1011.3
20260503020552 51 278 1.0 5.0 0.00 0.00 0.00 93 1011.2
20260503020050 51 304 1.0 9.0 0.00 0.00 0.00 93 1011.2
20260503015551 51 277 2.0 9.0 0.00 0.00 0.00 93 1011.2
20260503015049 51 281 1.0 4.0 0.00 0.00 0.00 93 1011.2
20260503014558 51 254 0.0 3.0 0.00 0.00 0.00 93 1011.2
20260503014049 51 296 1.0 3.0 0.00 0.00 0.00 93 1011.1
20260503013549 51 261 0.0 4.0 0.00 0.00 0.00 93 1011.1
20260503013049 51 271 1.0 4.0 0.00 0.00 0.00 93 1011.2
20260503012550 51 182 1.0 4.0 0.00 0.00 0.00 92 1011.1
20260503012047 51 296 0.0 3.0 0.00 0.00 0.00 92 1011.0
20260503011546 51 291 0.0 3.0 0.00 0.00 0.00 92 1011.0
20260503011047 52 291 1.0 5.0 0.00 0.00 0.00 92 1011.0
20260503010546 51 237 1.0 5.0 0.00 0.00 0.00 92 1011.1
20260503010047 51 190 0.0 3.0 0.00 0.00 0.00 92 1011.1
20260503005546 51 280 0.0 2.0 0.00 0.00 0.00 92 1011.0
20260503005048 51 225 0.0 2.0 0.00 0.00 0.00 91 1010.9
20260503004546 51 225 0.0 2.0 0.00 0.00 0.00 91 1010.9
20260503004045 52 225 0.0 2.0 0.00 0.00 0.00 91 1010.9
20260503003544 52 225 0.0 2.0 0.00 0.00 0.00 91 1011.0
20260503003043 52 176 0.0 2.0 0.00 0.00 0.00 91 1011.0
20260503002544 52 249 0.0 2.0 0.00 0.00 0.00 91 1011.1
20260503002043 52 249 0.0 2.0 0.00 0.00 0.00 90 1011.0
20260503001542 51 249 0.0 2.0 0.00 0.00 0.00 90 1011.0
20260503001042 51 249 0.0 1.0 0.00 0.00 0.00 89 1011.0
20260503000540 51 249 0.0 2.0 0.00 0.00 0.00 89 1011.1
20260503000040 51 249 0.0 2.0 0.00 0.00 0.00 88 1011.1
20260502235539 51 249 0.0 1.0 0.00 0.00 0.00 87 1011.1
20260502235038 52 249 0.0 1.0 0.00 0.00 0.00 87 1011.2
20260502234538 52 249 0.0 1.0 0.00 0.00 0.00 86 1011.2
20260502234038 52 249 0.0 1.0 0.00 0.00 0.00 85 1011.3
20260502233536 52 249 0.0 1.0 0.00 0.00 0.00 84 1011.2
20260502233037 52 249 0.0 0.0 0.00 0.00 0.00 83 1011.2
20260502232533 53 249 0.0 1.0 0.00 0.00 0.00 82 1011.2
20260502232032 53 249 0.0 1.0 0.00 0.00 0.00 82 1011.2
20260502231533 53 249 0.0 1.0 0.00 0.00 0.00 81 1011.4
20260502231032 54 249 0.0 0.0 0.00 0.00 0.00 80 1011.4
20260502230529 54 249 0.0 0.0 0.00 0.00 0.00 78 1011.4
20260502230027 54 249 0.0 0.0 0.00 0.00 0.00 77 1011.4
20260502225526 55 249 0.0 1.0 0.00 0.00 0.00 76 1011.4
20260502225024 55 249 0.0 1.0 0.00 0.00 0.00 76 1011.4
20260502224524 56 249 0.0 1.0 0.00 0.00 0.00 76 1011.5
20260502224023 56 249 0.0 1.0 0.00 0.00 0.00 75 1011.5
20260502223524 56 249 0.0 1.0 0.00 0.00 0.00 74 1011.6
20260502223021 57 249 0.0 1.0 0.00 0.00 0.00 72 1011.5
20260502222520 57 249 0.0 0.0 0.00 0.00 0.00 72 1011.5
20260502222018 58 249 0.0 1.0 0.00 0.00 0.00 71 1011.4
20260502221516 58 249 0.0 2.0 0.00 0.00 0.00 71 1011.5
20260502221015 58 249 0.0 2.0 0.00 0.00 0.00 70 1011.5
20260502220515 59 249 0.0 0.0 0.00 0.00 0.00 70 1011.4
20260502220013 59 249 0.0 1.0 0.00 0.00 0.00 69 1011.5
20260502215512 59 249 0.0 4.0 0.00 0.00 0.00 69 1011.4
20260502215012 59 249 0.0 4.0 0.00 0.00 0.00 68 1011.5
20260502214515 60 184 0.0 2.0 0.00 0.00 0.00 67 1011.6
20260502214012 60 184 0.0 3.0 0.00 0.00 0.00 66 1011.7
20260502213611 60 239 0.0 3.0 0.00 0.00 0.00 66 1011.7
20260502213012 60 291 0.0 1.0 0.00 0.00 0.00 65 1011.7
20260502212511 61 280 0.0 1.0 0.00 0.00 0.00 64 1011.7
20260502212017 61 280 0.0 1.0 0.00 0.00 0.00 64 1011.8
20260502211523 61 280 0.0 1.0 0.00 0.00 0.00 64 1011.8
20260502211009 61 280 0.0 1.0 0.00 0.00 0.00 63 1011.7
20260502210510 61 280 0.0 1.0 0.00 0.00 0.00 63 1011.7
20260502210009 61 280 0.0 2.0 0.00 0.00 0.00 63 1011.7
20260502205510 61 280 0.0 2.0 0.00 0.00 0.00 62 1011.7
20260502205010 62 280 0.0 2.0 0.00 0.00 0.00 61 1011.7
20260502204510 62 280 0.0 2.0 0.00 0.00 0.00 61 1011.7
20260502204012 62 280 0.0 2.0 0.00 0.00 0.00 61 1011.8
20260502203511 62 280 0.0 0.0 0.00 0.00 0.00 62 1011.7
20260502203009 62 280 0.0 1.0 0.00 0.00 0.00 62 1011.7
20260502202509 62 280 0.0 1.0 0.00 0.00 0.00 62 1011.7
20260502202009 62 280 0.0 0.0 0.00 0.00 0.00 62 1011.8
20260502201507 62 280 0.0 1.0 0.00 0.00 0.00 61 1011.8
20260502201009 62 280 0.0 2.0 0.00 0.00 0.00 60 1011.8
20260502200508 63 280 0.0 2.0 0.00 0.00 0.00 59 1011.8
20260502200008 63 280 0.0 4.0 0.00 0.00 0.00 59 1011.9
20260502195511 63 202 0.0 4.0 0.00 0.00 0.00 59 1012.0
20260502195007 63 212 0.0 1.0 0.00 0.00 0.00 59 1011.9
20260502194507 64 212 0.0 1.0 0.00 0.00 0.00 58 1012.1
20260502194012 64 212 0.0 2.0 0.00 0.00 0.00 56 1012.0
20260502193507 64 212 0.0 5.0 0.00 0.00 0.00 55 1012.1
20260502193007 65 212 1.0 5.0 0.00 0.00 0.00 53 1012.2
20260502192509 65 294 1.0 4.0 0.00 0.00 0.00 53 1012.4
20260502192009 66 232 1.0 4.0 0.00 0.00 0.00 50 1012.3
20260502191514 66 238 1.0 5.0 0.00 0.00 0.00 47 1012.3
20260502191011 66 311 1.0 5.0 0.00 0.00 0.00 45 1012.2
20260502190506 66 196 1.0 5.0 0.00 0.00 0.00 44 1012.2
20260502190011 66 274 1.0 4.0 0.00 0.00 0.00 44 1012.2
20260502185507 66 236 1.0 3.0 0.00 0.00 0.00 44 1012.2
20260502185006 67 229 0.0 4.0 0.00 0.00 0.00 43 1012.1
20260502184505 67 238 0.0 4.0 0.00 0.00 0.00 43 1012.0
20260502184005 67 231 1.0 4.0 0.00 0.00 0.00 42 1012.0
20260502183505 67 213 1.0 4.0 0.00 0.00 0.00 41 1011.9
20260502183005 68 268 0.0 5.0 0.00 0.00 0.00 41 1012.0
20260502182505 68 232 1.0 5.0 0.00 0.00 0.00 40 1011.9
20260502182004 68 221 1.0 5.0 0.00 0.00 0.00 40 1011.9
20260502181504 68 221 1.0 5.0 0.00 0.00 0.00 39 1011.9
20260502181008 69 209 1.0 5.0 0.00 0.00 0.00 38 1011.9
20260502180503 69 229 1.0 3.0 0.00 0.00 0.00 39 1011.8
20260502170502 70 206 4.0 11.0 0.00 0.00 0.00 42 1011.7
20260502164102 69 181 5.0 11.0 0.00 0.00 0.00 44 1011.9
20260502163557 70 211 5.0 13.0 0.00 0.00 0.00 44 1011.9
20260502163057 70 166 4.0 13.0 0.00 0.00 0.00 45 1012.0
20260502162557 70 191 5.0 14.0 0.00 0.00 0.00 45 1012.0
20260502162056 70 208 5.0 17.0 0.00 0.00 0.00 44 1012.1
20260502161559 70 227 5.0 17.0 0.00 0.00 0.00 44 1012.1
20260502161056 71 164 6.0 15.0 0.00 0.00 0.00 43 1012.1
20260502160555 72 197 7.0 18.0 0.00 0.00 0.00 43 1012.2
20260502152054 72 198 7.0 15.0 0.00 0.00 0.00 42 1012.6
20260502151558 72 158 6.0 19.0 0.00 0.00 0.00 42 1012.7
20260502151050 72 180 7.0 19.0 0.00 0.00 0.00 42 1012.7
20260502150547 72 228 4.0 12.0 0.00 0.00 0.00 43 1012.8
20260502130533 71 124 6.0 12.0 0.00 0.00 0.00 45 1014.2
20260502123530 71 195 7.0 15.0 0.00 0.00 0.00 47 1014.6
20260502123029 71 212 6.0 17.0 0.00 0.00 0.00 47 1014.5
20260502122529 71 197 8.0 17.0 0.00 0.00 0.00 47 1014.7
20260502122029 71 232 7.0 17.0 0.00 0.00 0.00 46 1014.6
20260502121528 72 190 5.0 11.0 0.00 0.00 0.00 49 1014.7
20260502121027 71 188 3.0 10.0 0.00 0.00 0.00 50 1014.8
20260502120524 70 198 4.0 12.0 0.00 0.00 0.00 51 1014.9
20260502115525 70 170 6.0 10.0 0.00 0.00 0.00 52 1015.0
20260502115021 70 198 4.0 9.0 0.00 0.00 0.00 52 1015.2
20260502114520 69 173 4.0 10.0 0.00 0.00 0.00 53 1015.2
20260502114018 69 161 4.0 12.0 0.00 0.00 0.00 54 1015.3
20260502113519 68 229 8.0 12.0 0.00 0.00 0.00 54 1015.2
20260502113018 68 159 4.0 9.0 0.00 0.00 0.00 59 1015.3
20260502112514 67 203 3.0 10.0 0.00 0.00 0.00 61 1015.4
20260502112013 67 160 3.0 10.0 0.00 0.00 0.00 61 1015.4
20260502111513 67 194 4.0 10.0 0.00 0.00 0.00 61 1015.5
20260502111013 67 190 3.0 9.0 0.00 0.00 0.00 61 1015.5
20260502110512 66 192 3.0 9.0 0.00 0.00 0.00 62 1015.6
20260502110011 66 175 5.0 11.0 0.00 0.00 0.00 62 1015.7
20260502105512 66 155 4.0 11.0 0.00 0.00 0.00 63 1015.7
20260502105011 65 215 4.0 10.0 0.00 0.00 0.00 62 1015.8
20260502104510 66 192 4.0 12.0 0.00 0.00 0.00 62 1015.7
20260502104009 66 160 4.0 12.0 0.00 0.00 0.00 62 1015.8
20260502103508 65 171 3.0 10.0 0.00 0.00 0.00 64 1015.8
20260502103008 65 177 4.0 11.0 0.00 0.00 0.00 65 1015.9
20260502102507 65 130 4.0 11.0 0.00 0.00 0.00 65 1015.8
20260502102006 65 169 3.0 9.0 0.00 0.00 0.00 65 1015.9
20260502101509 65 184 5.0 9.0 0.00 0.00 0.00 65 1015.9
20260502101005 64 169 3.0 10.0 0.00 0.00 0.00 66 1016.0
20260502100503 64 214 4.0 11.0 0.00 0.00 0.00 66 1016.0
20260502091051 65 195 4.0 9.0 0.00 0.00 0.00 61 1016.5
20260502090551 64 274 4.0 8.0 0.00 0.00 0.00 64 1016.5
20260502071520 61 187 4.0 9.0 0.00 0.00 0.00 68 1017.2
20260502071017 60 230 2.0 8.0 0.00 0.00 0.00 69 1017.2
20260502070516 60 253 3.0 8.0 0.00 0.00 0.00 69 1017.3
20260502070022 60 217 3.0 10.0 0.00 0.00 0.00 69 1017.3
20260502065514 59 200 5.0 10.0 0.00 0.00 0.00 69 1017.4
20260502065017 59 267 3.0 11.0 0.00 0.00 0.00 69 1017.4
20260502064525 59 214 1.0 10.0 0.00 0.00 0.00 70 1017.3
20260502064009 59 195 2.0 7.0 0.00 0.00 0.00 70 1017.4
20260502063510 58 199 3.0 10.0 0.00 0.00 0.00 70 1017.4
20260502063010 58 209 3.0 10.0 0.00 0.00 0.00 71 1017.5
20260502062506 58 175 5.0 9.0 0.00 0.00 0.00 70 1017.5
20260502062009 58 178 5.0 8.0 0.00 0.00 0.00 70 1017.5
20260502061503 58 209 3.0 7.0 0.00 0.00 0.00 71 1017.6
20260502061100 58 215 3.0 10.0 0.00 0.00 0.00 71 1017.6
20260502060559 57 212 4.0 10.0 0.00 0.00 0.00 71 1017.7
20260502060111 57 247 4.0 8.0 0.00 0.00 0.00 71 1017.7
20260502055556 57 237 4.0 10.0 0.00 0.00 0.00 72 1017.8
20260502055055 57 169 3.0 10.0 0.00 0.00 0.00 72 1017.7
20260502054553 57 219 3.0 10.0 0.00 0.00 0.00 73 1017.7
20260502054052 56 182 2.0 7.0 0.00 0.00 0.00 74 1017.8
20260502053551 56 150 3.0 7.0 0.00 0.00 0.00 76 1017.8
20260502053058 55 232 1.0 5.0 0.00 0.00 0.00 77 1017.8
20260502052548 55 181 1.0 5.0 0.00 0.00 0.00 78 1017.9
20260502052047 54 192 2.0 7.0 0.00 0.00 0.00 79 1017.9
20260502051556 54 209 3.0 5.0 0.00 0.00 0.00 80 1017.9
20260502051042 53 244 3.0 5.0 0.00 0.00 0.00 82 1017.9
20260502050544 52 223 1.0 4.0 0.00 0.00 0.00 84 1018.0
20260502050041 51 208 1.0 4.0 0.00 0.00 0.00 86 1018.1
20260502045542 50 221 1.0 4.0 0.00 0.00 0.00 87 1018.1
20260502045039 50 188 1.0 3.0 0.00 0.00 0.00 88 1018.1
20260502044541 49 236 0.0 2.0 0.00 0.00 0.00 88 1018.2
20260502044039 48 211 0.0 2.0 0.00 0.00 0.00 88 1018.2
20260502043536 48 211 0.0 2.0 0.00 0.00 0.00 88 1018.2
20260502043036 48 196 0.0 3.0 0.00 0.00 0.00 88 1018.2
20260502042537 47 236 0.0 1.0 0.00 0.00 0.00 87 1018.3
20260502042035 47 236 0.0 1.0 0.00 0.00 0.00 87 1018.3
20260502041537 48 288 0.0 2.0 0.00 0.00 0.00 86 1018.4
20260502041032 48 288 0.0 2.0 0.00 0.00 0.00 86 1018.4
20260502040534 48 288 0.0 1.0 0.00 0.00 0.00 86 1018.5
20260502040031 48 288 0.0 1.0 0.00 0.00 0.00 85 1018.6
20260502035531 48 288 0.0 2.0 0.00 0.00 0.00 85 1018.6
20260502035030 49 296 0.0 2.0 0.00 0.00 0.00 85 1018.7
20260502034532 49 168 0.0 1.0 0.00 0.00 0.00 84 1018.8
20260502034030 49 168 0.0 1.0 0.00 0.00 0.00 84 1018.8
20260502033527 49 168 0.0 1.0 0.00 0.00 0.00 84 1019.0
20260502033029 49 168 0.0 3.0 0.00 0.00 0.00 84 1019.1
20260502032527 49 207 0.0 4.0 0.00 0.00 0.00 83 1019.0
20260502032026 50 228 0.0 3.0 0.00 0.00 0.00 83 1019.1
20260502031526 50 239 1.0 5.0 0.00 0.00 0.00 83 1019.2
20260502031025 50 239 1.0 6.0 0.00 0.00 0.00 83 1019.2
20260502030524 49 223 1.0 5.0 0.00 0.00 0.00 82 1019.3
20260502030024 49 219 0.0 3.0 0.00 0.00 0.00 81 1019.4
20260502025523 50 219 0.0 3.0 0.00 0.00 0.00 81 1019.4
20260502025022 50 200 0.0 3.0 0.00 0.00 0.00 81 1019.5
20260502024522 50 161 0.0 4.0 0.00 0.00 0.00 81 1019.5